User: anonymous   Login
Location: Borkenes
(68.7830°N, 16.1830°E)
Time: 11:55:21
(UTC+01:00)
Language:

Vanguard 2 Rocket - Orbit

View from above orbital plane
View from above orbital plane
View from above satellite
View from above satellite

Ground track
Ground track

The orbit data is extracted from the following two-line orbital elements,

1    12U 59001B   19345.52719174 -.00000012  00000-0 -16408-4 0  9994
2    12  32.9005 291.9450 1666261 162.6985 203.8123 11.44315992500912
Epoch (UTC): 11 December 2019 12:39:09
Eccentricity: 0.1666261
inclination: 32.9005°
perigee height: 554 km
apogee height: 3326 km
right ascension of ascending node: 291.9450°
argument of perigee: 162.6985°
revolutions per day: 11.44315992
mean anomaly at epoch: 203.8123°
orbit number at epoch: 50091

The dashed part of the orbit path shows where the satellite is in the earth's shadow,  

DLR